Location: Muenchen
(48.1800°N, 11.5800°E)
Time: 22:16:40
(UTC+02:00)

Tiros 1 - Pass Details

Date: 28 June 2018
Orbit: 631 x 664 km, 48.4° (Epoch: 19 July)

Event Time Altitude Azimuth Distance (km) Brightness Sun altitude
Rises 22:39:41 0° 285° (WNW) 2,940 11.4 -10.3°
Reaches altitude 10° 22:42:13 10° 274° (W) 2,034 10.3 -10.6°
Maximum altitude 22:46:16 30° 214° (SW) 1,167 8.3 -11.0°
Enters shadow 22:49:24 15° 161° (SSE) 1,737 8.7 -11.3°
